Denver, CO

11:44 PM MDT on October 20, 2019 (GMT -0600)
Denver International

Weather History for KDEN - September, 2019

Change the Weather History Date:

Monday, September 16, 2019

  Actual Average Record
Temperature  
Mean Temperature 75 °F 63 °F  
Max Temperature 89 °F 79 °F 95 °F (2000)
Min Temperature 61 °F 48 °F 30 °F (1965)
Degree Days  
Heating Degree Days 0 4  
Month to date heating degree days 5 37  
Since 1 July heating degree days 5 53  
Cooling Degree Days 10 2  
Month to date cooling degree days 129 58  
Year to date cooling degree days 886 746  
Growing Degree Days 26 (Base 50)    
Moisture  
Dew Point 37 °F    
Average Humidity 32    
Maximum Humidity 52    
Minimum Humidity 11    
Precipitation  
Precipitation 0.00 in 0.03 in 0.38 in (1971)
Month to date precipitation 0.40 0.53  
Year to date precipitation 12.98 11.89  
Snow  
Snow 0.00 in - - ()
Month to date snowfall 0.0  
Since 1 July snowfall 0.0  
Since 1 September snowfall 0.0  
Snow Depth 0.00 in    
Sea Level Pressure  
Sea Level Pressure 29.73 in    
Wind  
Wind Speed 10 mph (SW)    
Max Wind Speed 24 mph    
Max Gust Speed 31 mph    
Visibility 10 miles    
Events      
T = Trace of Precipitation, MM = Missing Value Source: NWS Daily Summary

Daily Weather History Graph

Daily Weather History Graph

Search for Another Location

Airport or City:

Astronomy

Sep. 16, 2019 Rise Set
Actual Time 6:40 AM MDT 7:05 PM MDT
Civil Twilight 6:13 AM MDT 7:32 PM MDT
Nautical Twilight 5:41 AM MDT 8:04 PM MDT
Astronomical Twilight 5:08 AM MDT 8:37 PM MDT
Moon 8:42 PM MDT (9/16) 8:49 AM MDT (9/16)
Length of Visible Light 13h 19m
Length of Day
12h 25m
Waning Gibbous, 94% of the Moon is Illuminated
Sep 16
Waning Gibbous
Sep 21
Last Quarter
Sep 28
New
Oct 5
First Quarter
Oct 13
Full

Hourly Weather History & Observations

Time (MDT) Temp. Dew Point Humidity Pressure Visibility Wind Dir Wind Speed Gust Speed Precip Events Conditions
12:53 AM 68.0 °F 41.0 °F 37% 29.74 in 10.0 mi WSW 8.1 mph - N/A   Scattered Clouds
1:53 AM 64.9 °F 41.0 °F 42% 29.75 in 10.0 mi WSW 10.4 mph - N/A   Scattered Clouds
2:53 AM 62.1 °F 41.0 °F 46% 29.74 in 10.0 mi SW 10.4 mph - N/A   Mostly Cloudy
3:53 AM 63.0 °F 41.0 °F 45% 29.74 in 10.0 mi WSW 10.4 mph - N/A   Mostly Cloudy
4:53 AM 61.0 °F 41.0 °F 48% 29.75 in 10.0 mi WSW 6.9 mph - N/A   Mostly Cloudy
5:53 AM 63.0 °F 39.0 °F 41% 29.75 in 10.0 mi WSW 10.4 mph - N/A   Mostly Cloudy
6:53 AM 64.9 °F 37.0 °F 36% 29.77 in 10.0 mi WSW 11.5 mph - N/A   Mostly Cloudy
7:53 AM 69.1 °F 35.1 °F 29% 29.80 in 10.0 mi West 12.7 mph - N/A   Mostly Cloudy
8:53 AM 71.1 °F 41.0 °F 34% 29.80 in 10.0 mi West 8.1 mph - N/A   Mostly Cloudy
9:53 AM 77.0 °F 32.0 °F 19% 29.80 in 10.0 mi West 6.9 mph - N/A   Scattered Clouds
10:53 AM 80.1 °F 27.0 °F 14% 29.78 in 10.0 mi Calm Calm - N/A   Scattered Clouds
11:53 AM 82.9 °F 26.1 °F 13% 29.76 in 10.0 mi WNW 8.1 mph - N/A   Scattered Clouds
12:53 PM 84.9 °F 26.1 °F 12% 29.73 in 10.0 mi WSW 4.6 mph - N/A   Scattered Clouds
1:53 PM 86.0 °F 27.0 °F 12% 29.72 in 10.0 mi NW 5.8 mph - N/A   Scattered Clouds
2:53 PM 87.1 °F 28.0 °F 12% 29.70 in 10.0 mi ESE 6.9 mph - N/A   Scattered Clouds
3:53 PM 88.0 °F 28.9 °F 12% 29.69 in 10.0 mi North 5.8 mph - N/A   Mostly Cloudy
4:53 PM 86.0 °F 30.0 °F 13% 29.69 in 10.0 mi ENE 11.5 mph - N/A   Mostly Cloudy
5:53 PM 84.9 °F 32.0 °F 15% 29.68 in 10.0 mi East 11.5 mph 19.6 mph N/A   Mostly Cloudy
6:53 PM 78.1 °F 34.0 °F 20% 29.70 in 10.0 mi East 8.1 mph - N/A   Mostly Cloudy
7:53 PM 75.0 °F 43.0 °F 32% 29.72 in 10.0 mi South 21.9 mph 31.1 mph N/A   Mostly Cloudy
8:53 PM 72.0 °F 44.1 °F 37% 29.72 in 10.0 mi SSE 11.5 mph - N/A   Mostly Cloudy
10:53 PM 68.0 °F 46.9 °F 47% 29.70 in 10.0 mi WSW 12.7 mph - N/A   Partly Cloudy
11:53 PM 66.9 °F 48.0 °F 51% 29.68 in 10.0 mi SSW 12.7 mph - N/A   Scattered Clouds